Location: Chrząstowo
(52.0654°N, 17.1290°E)
Time: 15:43:54
(UTC+01:00)

Envisat - Pass Details

Date: 14 December 2019
Orbit: 764 x 766 km, 98.1° (Epoch: 20 January)

Event Time Altitude Azimuth Distance (km) Brightness Sun altitude
Rises 17:48:37 0° 171° (S) 3,223 6.3 -18.5°
Reaches altitude 10° 17:50:56 10° 174° (S) 2,301 5.6 -18.8°
Maximum altitude 17:55:59 67° 257° (WSW) 831 3.3 -19.6°
Drops below altitude 10° 18:01:04 10° 341° (NNW) 2,317 5.6 -20.4°
Sets 18:03:25 0° 344° (NNW) 3,248 6.3 -20.7°
